GW6793 Weather Reports


time (UTC)temp
F
wind
direction
speed
knots
gust
knots
rain 1hr
in
rain 24hr
in
rain mn
in
humidity
%
barometer
mb
20260502151501 63 15 3.5 8.7 0.00 1.62 0.00 72 1021.1
20260502151000 62 13 3.5 8.7 0.00 1.62 0.00 74 1021.0
20260502150500 62 28 4.3 10.4 0.00 1.62 0.00 74 1021.0
20260502130500 53 25 3.5 9.6 0.00 2.13 0.00 93 1019.8
20260502123500 51 12 2.6 4.3 0.00 2.27 0.00 94 1019.4
20260502122959 51 20 1.7 5.2 0.00 2.27 0.00 94 1019.5
20260502122500 51 17 1.7 4.3 0.00 2.27 0.00 94 1019.4
20260502121959 51 13 1.7 4.3 0.00 2.27 0.00 94 1019.3
20260502121500 50 11 1.7 3.5 0.00 2.27 0.00 94 1019.2
20260502121001 50 11 1.7 3.5 0.00 2.27 0.00 94 1019.2
20260502120500 50 11 1.7 4.3 0.00 2.27 0.00 94 1019.1
20260502115457 50 20 1.7 3.5 0.00 2.37 0.00 94 1018.9
20260502114958 50 20 1.7 3.5 0.00 2.37 0.00 94 1018.8
20260502114458 50 21 1.7 3.5 0.00 2.37 0.00 94 1018.7
20260502114005 50 21 1.7 3.5 0.00 2.37 0.00 94 1018.8
20260502113524 50 21 1.7 3.5 0.00 2.37 0.00 94 1018.8
20260502112959 50 21 1.7 3.5 0.00 2.37 0.00 94 1018.7
20260502112458 50 21 1.7 3.5 0.00 2.37 0.00 94 1018.6
20260502111958 50 21 1.7 2.6 0.00 2.37 0.00 94 1018.5
20260502111459 50 21 1.7 2.6 0.00 2.37 0.00 93 1018.5
20260502110959 50 21 1.7 2.6 0.00 2.37 0.00 93 1018.5
20260502110003 50 21 0.9 1.7 0.00 2.37 0.00 93 1018.3
20260502105459 50 21 0.9 1.7 0.00 2.58 0.00 94 1018.3
20260502104500 50 21 0.9 2.6 0.00 2.58 0.00 93 1018.1
20260502104000 51 21 0.9 2.6 0.00 2.58 0.00 93 1017.9
20260502103500 51 21 0.9 3.5 0.00 2.58 0.00 93 1017.8
20260502103000 51 21 0.9 2.6 0.00 2.58 0.00 93 1017.7
20260502102459 51 21 0.9 1.7 0.00 2.58 0.00 93 1017.7
20260502101959 51 21 0.9 3.5 0.00 2.58 0.00 93 1017.7
20260502101459 51 21 1.7 3.5 0.00 2.58 0.00 93 1017.6
20260502101000 51 16 1.7 4.3 0.00 2.58 0.00 93 1017.6
20260502091458 52 17 1.7 7.0 0.00 2.90 0.00 93 1016.6
20260502090458 52 12 1.7 4.3 0.00 2.90 0.00 93 1016.5
20260502071458 52 19 1.7 7.0 0.00 3.55 0.00 93 1016.1
20260502070959 52 29 1.7 4.3 0.00 3.55 0.00 93 1016.1
20260502070457 52 26 1.7 4.3 0.00 3.55 0.00 93 1016.1
20260502065457 53 345 2.6 7.8 0.00 3.59 0.00 93 1016.2
20260502064957 53 360 2.6 7.8 0.00 3.59 0.00 93 1016.2
20260502063958 53 13 3.5 9.6 0.00 3.59 0.00 92 1016.3
20260502063457 53 9 3.5 8.7 0.00 3.59 0.00 93 1016.2
20260502063000 53 22 3.5 8.7 0.00 3.59 0.00 93 1016.2
20260502062458 54 28 4.3 11.3 0.00 3.59 0.00 92 1016.2
20260502061958 54 29 4.3 11.3 0.00 3.59 0.00 92 1016.3
20260502060457 54 17 4.3 9.6 0.00 3.59 0.00 93 1016.1
20260502055504 54 15 3.5 9.6 0.00 3.59 0.00 93 1016.4
20260502055005 54 355 4.3 9.6 0.00 3.59 0.00 93 1016.4
20260502054005 54 12 4.3 7.8 0.00 3.59 0.00 93 1016.4
20260502053504 54 17 4.3 9.6 0.00 3.59 0.00 93 1016.4
20260502053004 54 350 3.5 9.6 0.00 3.59 0.00 93 1016.4
20260502052504 54 351 3.5 7.0 0.00 3.59 0.00 93 1016.4
20260502052005 54 13 4.3 13.0 0.00 3.59 0.00 93 1016.3
20260502051504 54 349 4.3 11.3 0.00 3.59 0.00 93 1016.3
20260502051005 54 12 3.5 9.6 0.00 3.59 0.00 93 1016.3
20260502050504 54 355 4.3 9.6 0.00 3.59 0.00 93 1016.2
20260502050012 54 350 5.2 10.4 0.00 3.59 0.00 93 1016.2
20260502045505 54 21 4.3 13.0 0.00 3.73 3.59 93 1016.0
20260502045005 54 5 4.3 9.6 0.00 3.73 3.59 94 1016.0
20260502044505 54 360 5.2 9.6 0.00 3.73 3.59 94 1015.9
20260502044006 54 344 4.3 9.6 0.00 3.73 3.59 94 1016.0
20260502043506 54 342 4.3 10.4 0.00 3.73 3.59 94 1015.8
20260502043005 54 56 4.3 10.4 0.00 3.73 3.59 94 1015.7
20260502042504 55 26 4.3 10.4 0.00 3.73 3.59 94 1015.6
20260502042005 54 36 5.2 10.4 0.00 3.73 3.59 94 1015.6
20260502041506 54 322 5.2 10.4 0.00 3.73 3.59 94 1015.7
20260502041005 55 355 5.2 9.6 0.00 3.73 3.59 94 1015.6
20260502040008 55 360 5.2 13.0 0.00 3.73 3.59 94 1015.6
20260502035505 55 343 5.2 13.0 0.00 3.74 3.59 94 1015.4
20260502035008 55 17 5.2 11.3 0.00 3.74 3.59 94 1015.5
20260502034504 55 355 4.3 11.3 0.00 3.74 3.59 94 1015.4
20260502034005 55 49 4.3 11.3 0.00 3.74 3.59 94 1015.5
20260502033504 55 24 4.3 11.3 0.00 3.74 3.59 94 1015.5
20260502032505 55 9 4.3 10.4 0.00 3.74 3.59 94 1015.6
20260502032005 55 344 5.2 13.0 0.00 3.74 3.59 94 1015.5
20260502031505 55 31 5.2 13.0 0.00 3.74 3.59 94 1015.4
20260502030006 55 331 6.1 15.6 0.00 3.74 3.59 95 1015.0
20260502025505 56 34 5.2 15.6 0.00 3.74 3.59 95 1014.9
20260502024504 56 350 4.3 15.6 0.00 3.74 3.59 95 1014.9
20260502024004 56 355 3.5 12.2 0.00 3.74 3.59 95 1014.9
20260502023504 56 22 4.3 8.7 0.00 3.74 3.59 95 1014.8
20260502023003 56 355 4.3 8.7 0.00 3.74 3.59 95 1014.7
20260502022506 56 360 5.2 10.4 0.00 3.74 3.59 95 1014.6
20260502022004 56 360 5.2 13.9 0.00 3.74 3.59 95 1014.5
20260502021505 56 342 4.3 13.9 0.00 3.74 3.59 95 1014.3
20260502021005 56 346 4.3 8.7 0.00 3.74 3.59 95 1014.1
20260502020505 56 355 4.3 10.4 0.00 3.74 3.59 95 1013.9
20260502020008 56 15 4.3 10.4 0.00 3.74 3.59 95 1013.8
20260502015504 56 5 4.3 9.6 0.00 3.74 3.59 95 1013.7
20260502015004 56 9 3.5 9.6 0.00 3.74 3.59 95 1013.5
20260502014504 56 355 4.3 11.3 0.01 3.74 3.59 95 1013.1
20260502014005 56 360 5.2 11.3 0.01 3.74 3.59 95 1012.8
20260502013004 57 82 4.3 9.6 0.01 3.74 3.59 95 1012.9
20260502012504 57 5 3.5 7.8 0.01 3.74 3.59 95 1012.8
20260502012004 57 54 4.3 8.7 0.02 3.74 3.59 95 1012.8
20260502011005 57 360 5.2 12.2 0.04 3.74 3.59 95 1012.4
20260502010504 57 340 6.1 15.6 0.05 3.74 3.59 95 1012.3
20260502005504 57 5 6.1 14.8 0.06 3.74 3.59 95 1012.5
20260502005005 57 346 5.2 14.8 0.07 3.74 3.59 95 1012.4
20260502004504 58 32 5.2 13.0 0.08 3.73 3.58 95 1012.4
20260502004005 58 330 5.2 13.0 0.09 3.73 3.58 95 1012.4
20260502003504 58 5 4.3 11.3 0.10 3.73 3.58 95 1012.7
20260502002504 58 12 5.2 11.3 0.13 3.73 3.58 95 1012.5
20260502002003 58 30 4.3 12.2 0.14 3.72 3.57 96 1012.4
20260502001504 58 355 4.3 8.7 0.13 3.71 3.56 96 1012.4
20260502001004 58 355 4.3 10.4 0.14 3.70 3.55 96 1012.4
20260502000504 58 360 3.5 7.0 0.15 3.69 3.54 96 1012.7
20260502000006 58 9 3.5 9.6 0.16 3.69 3.54 96 1013.2
20260501235505 58 5 2.6 9.6 0.17 3.68 3.53 95 1013.0
20260501235003 58 331 3.5 7.8 0.17 3.67 3.52 95 1012.9
20260501234503 58 355 3.5 9.6 0.16 3.65 3.50 95 1012.6
20260501234004 58 31 3.5 7.8 0.17 3.64 3.49 95 1012.5
20260501233004 58 43 4.3 10.4 0.20 3.62 3.47 95 1012.0
20260501232504 58 340 3.5 8.7 0.27 3.60 3.45 95 1011.9
20260501232005 59 11 3.5 8.7 0.31 3.58 3.43 95 1012.0
20260501231505 59 340 4.3 9.6 0.32 3.58 3.43 95 1012.1
20260501231004 59 26 4.3 10.4 0.30 3.56 3.41 95 1012.2
20260501230504 59 351 5.2 10.4 0.28 3.54 3.39 95 1012.2
20260501225504 59 38 4.3 10.4 0.25 3.51 3.36 96 1011.9
20260501225003 59 355 4.3 8.7 0.24 3.50 3.35 95 1011.8
20260501224503 59 336 4.3 8.7 0.23 3.49 3.34 95 1011.6
20260501224003 59 5 4.3 8.7 0.21 3.47 3.32 95 1011.0
20260501223503 59 13 4.3 8.7 0.19 3.45 3.30 95 1011.1
20260501223004 59 335 4.3 10.4 0.16 3.42 3.27 95 1011.1
20260501222503 59 9 4.3 8.7 0.07 3.33 3.18 96 1010.7
20260501222004 59 360 4.3 7.8 0.01 3.27 3.12 95 1011.0
20260501221002 59 355 3.5 9.6 0.00 3.26 3.11 96 1009.4
20260501220502 59 36 4.3 9.6 0.00 3.26 3.11 96 1009.1
20260501220002 59 11 4.3 10.4 0.00 3.26 3.11 96 1009.2
20260501215502 60 23 4.3 11.3 0.00 3.26 3.11 96 1009.2
20260501215002 60 12 5.2 11.3 0.00 3.26 3.11 96 1009.4
20260501214502 60 355 4.3 11.3 0.00 3.26 3.11 96 1009.2
20260501214002 60 31 4.3 11.3 0.00 3.26 3.11 96 1009.3
20260501213502 60 360 4.3 12.2 0.00 3.26 3.11 96 1009.4
20260501213003 60 30 4.3 12.2 0.00 3.26 3.11 96 1009.4
20260501212502 60 55 3.5 12.2 0.00 3.26 3.11 96 1009.1
20260501212001 60 350 3.5 9.6 0.00 3.26 3.11 96 1008.9
20260501211501 60 355 4.3 11.3 0.01 3.26 3.11 96 1009.1
20260501210502 60 22 6.1 13.0 0.12 3.26 3.11 96 1009.4
20260501210003 60 350 5.2 10.4 0.17 3.26 3.11 96 1009.4
20260501205502 60 325 5.2 17.4 0.26 3.26 3.11 96 1009.5
20260501205002 60 360 6.1 17.4 0.32 3.26 3.11 96 1009.6
20260501204502 60 360 6.1 11.3 0.34 3.26 3.11 96 1009.8
20260501204002 60 22 5.2 13.0 0.35 3.26 3.11 96 1010.0
20260501203502 61 355 5.2 13.0 0.35 3.26 3.11 96 1010.0
20260501203002 61 351 5.2 9.6 0.36 3.26 3.11 96 1010.2
20260501202502 61 48 5.2 9.6 0.37 3.26 3.11 96 1009.9
20260501202002 61 19 5.2 11.3 0.38 3.26 3.11 96 1009.8
20260501201002 61 329 3.5 8.7 0.35 3.22 3.07 96 1010.0
20260501200501 61 360 1.7 8.7 0.28 3.14 2.99 96 1009.9
20260501200002 62 325 0.9 3.5 0.23 3.09 2.94 96 1010.9
20260501195004 61 321 2.6 5.2 0.09 2.94 2.79 96 1010.8
20260501194004 61 334 4.3 7.0 0.06 2.91 2.76 96 1010.0
20260501193502 61 41 4.3 10.4 0.06 2.91 2.76 96 1009.7
20260501193003 61 338 5.2 9.6 0.05 2.90 2.75 96 1009.4
20260501192502 61 339 6.1 11.3 0.04 2.89 2.74 96 1008.8
20260501192002 61 346 5.2 11.3 0.03 2.88 2.73 96 1008.9
20260501191501 61 343 3.5 8.7 0.02 2.87 2.72 96 1009.4
20260501191002 62 338 1.7 8.7 0.02 2.87 2.72 96 1008.8
20260501190502 62 106 2.6 7.8 0.01 2.86 2.71 96 1008.1
20260501190003 62 71 3.5 8.7 0.01 2.86 2.71 96 1008.2
20260501185502 62 355 3.5 8.7 0.01 2.85 2.70 96 1009.0
20260501184502 62 31 2.6 5.2 0.05 2.85 2.70 96 1009.3
20260501184002 62 355 2.6 5.2 0.07 2.85 2.70 96 1009.2
20260501183502 62 9 1.7 7.8 0.09 2.85 2.70 96 1009.0
20260501183002 62 33 1.7 5.2 0.09 2.85 2.70 96 1009.1
20260501182001 61 60 1.7 5.2 0.10 2.85 2.70 96 1008.8
20260501181001 61 45 1.7 5.2 0.12 2.85 2.70 96 1009.2
20260501180501 61 360 2.6 7.8 0.13 2.85 2.70 96 1008.9
20260501180002 61 24 3.5 7.8 0.14 2.85 2.70 96 1008.9
20260501175501 61 5 3.5 7.8 0.16 2.84 2.69 96 1008.9
20260501174500 61 40 2.6 7.8 0.14 2.80 2.65 96 1009.1
20260501174002 61 26 3.5 7.0 0.12 2.78 2.63 96 1009.6
20260501173502 61 22 2.6 9.6 0.11 2.76 2.61 96 1009.3
20260501173001 61 121 3.5 8.7 0.12 2.76 2.61 96 1009.7
20260501172501 61 331 3.5 12.2 0.13 2.75 2.60 96 1009.2
20260501172002 61 348 3.5 8.7 0.13 2.75 2.60 96 1008.6
20260501171502 60 5 3.5 11.3 0.13 2.74 2.59 96 1007.7
20260501170501 60 355 3.5 9.6 0.11 2.72 2.57 96 1008.4
20260501170001 60 135 3.5 13.0 0.11 2.71 2.56 96 1009.3
20260501165500 61 161 5.2 13.0 0.09 2.68 2.53 96 1009.1
20260501165000 61 5 5.2 10.4 0.08 2.66 2.51 96 1010.9
20260501164501 61 21 5.2 12.2 0.08 2.66 2.51 96 1011.6
20260501164001 61 9 6.1 12.2 0.10 2.66 2.51 96 1011.7
20260501163501 61 13 5.2 12.2 0.10 2.65 2.50 96 1010.9
20260501163000 61 13 4.3 12.2 0.14 2.64 2.49 96 1011.0
20260501162501 61 22 3.5 9.6 0.16 2.62 2.47 96 1011.3
20260501161501 61 332 5.2 11.3 0.29 2.61 2.46 96 1011.7
20260501161001 61 355 5.2 13.9 0.39 2.61 2.46 96 1010.7
20260501160501 61 347 4.3 13.9 0.44 2.61 2.46 96 1010.7
20260501160004 61 35 5.2 11.3 0.47 2.60 2.45 96 1011.0
20260501155502 61 30 4.3 11.3 0.53 2.59 2.44 96 1011.5
20260501155000 61 9 4.3 8.7 0.67 2.58 2.43 96 1011.6
20260501154000 61 5 4.3 10.4 0.72 2.56 2.41 96 1011.2